QPF
0.01 0.00 0.00 0.00 0.01 0.01 0.01 0.01 0.01 0.01 0.02 0.03 0.03 0.04 0.05 0.04 0.04 0.04 0.04 0.05 0.05 0.04 0.04 0.05 0.04 0.03 0.03 0.03 0.04 0.04 0.06 0.07 0.06 0.04 0.05 0.05 0.05 0.05 0.04 0.04 0.03 0.03 0.02 0.02
0.00 0.00 0.00 0.00 0.01 0.01 0.01 0.01 0.01 0.01 0.01 0.02 0.02 0.02 0.02 0.03 0.03 0.03 0.04 0.05 0.06 0.05 0.03 0.03 0.02 0.02 0.03 0.03 0.04 0.03 0.04 0.05 0.04 0.04 0.05 0.05 0.05 0.04 0.04 0.04 0.03 0.03 0.03 0.02
0.01 0.00 0.01 0.02 0.02 0.03 0.02 0.02 0.01 0.02 0.02 0.01 0.02 0.02 0.02 0.01 0.02 0.01 0.01 0.01 0.02 0.02 0.02 0.01 0.01 0.01 0.01 0.01 0.02 0.02 0.02 0.02 0.02 0.03 0.04 0.04 0.05 0.05 0.05 0.05 0.05 0.05 0.04 0.03
0.01 0.01 0.03 0.04 0.03 0.04 0.04 0.02 0.01 0.01 0.01 0.00 0.00 0.01 0.01 0.01 0.01 0.01 0.01 0.01 0.01 0.02 0.04 0.02 0.01 0.01 0.01 0.01 0.01 0.01 0.01 0.02 0.02 0.02 0.02 0.03 0.04 0.05 0.06 0.07 0.06 0.05 0.05 0.04
0.02 0.03 0.04 0.05 0.04 0.03 0.03 0.03 0.01 0.01 0.01 0.01 0.00 0.01 0.01 0.00 0.00 0.00 0.01 0.01 0.01 0.02 0.03 0.04 0.02 0.02 0.02 0.02 0.01 0.01 0.01 0.01 0.02 0.02 0.03 0.04 0.04 0.04 0.05 0.06 0.06 0.06 0.05 0.04
0.03 0.04 0.04 0.04 0.01 0.01 0.03 0.05 0.01 0.01 0.02 0.02 0.02 0.03 0.02 0.01 0.01 0.01 0.01 0.01 0.01 0.02 0.04 0.04 0.03 0.03 0.03 0.02 0.02 0.03 0.02 0.02 0.02 0.02 0.03 0.04 0.04 0.04 0.04 0.04 0.05 0.05 0.05 0.05
0.03 0.04 0.05 0.03 0.01 0.02 0.05 0.05 0.02 0.01 0.03 0.04 0.03 0.02 0.01 0.01 0.01 0.01 0.01 0.01 0.02 0.03 0.04 0.03 0.04 0.05 0.03 0.03 0.03 0.04 0.03 0.02 0.02 0.03 0.04 0.04 0.04 0.04 0.04 0.03 0.03 0.03 0.04 0.04
0.04 0.05 0.05 0.04 0.02 0.03 0.04 0.03 0.01 0.02 0.02 0.03 0.01 0.01 0.01 0.01 0.01 0.01 0.01 0.01 0.01 0.03 0.03 0.03 0.05 0.05 0.04 0.03 0.03 0.03 0.02 0.02 0.02 0.03 0.02 0.04 0.05 0.05 0.04 0.03 0.03 0.03 0.03 0.04
0.05 0.05 0.05 0.04 0.03 0.02 0.02 0.02 0.02 0.02 0.02 0.02 0.02 0.01 0.01 0.02 0.02 0.01 0.01 0.01 0.01 0.02 0.02 0.03 0.04 0.05 0.03 0.02 0.02 0.03 0.03 0.02 0.03 0.03 0.03 0.05 0.05 0.04 0.06 0.06 0.05 0.04 0.03 0.02
0.03 0.03 0.02 0.02 0.02 0.02 0.02 0.02 0.02 0.02 0.02 0.02 0.03 0.01 0.01 0.02 0.02 0.02 0.02 0.01 0.01 0.02 0.02 0.03 0.03 0.03 0.03 0.02 0.02 0.02 0.03 0.03 0.04 0.04 0.03 0.04 0.06 0.06 0.05 0.05 0.05 0.04 0.03 0.02
0.02 0.03 0.04 0.03 0.03 0.04 0.03 0.03 0.02 0.02 0.02 0.03 0.02 0.02 0.01 0.01 0.02 0.02 0.02 0.02 0.02 0.03 0.03 0.03 0.02 0.02 0.03 0.03 0.03 0.04 0.05 0.05 0.05 0.04 0.02 0.02 0.02 0.02 0.02 0.03 0.03 0.03 0.02 0.01
0.02 0.02 0.02 0.02 0.03 0.03 0.03 0.02 0.02 0.02 0.02 0.02 0.02 0.02 0.01 0.01 0.01 0.02 0.02 0.02 0.03 0.04 0.04 0.03 0.02 0.02 0.03 0.03 0.03 0.05 0.07 0.07 0.04 0.02 0.01 0.01 0.01 0.01 0.01 0.01 0.01 0.01 0.01 0.01
0.02 0.01 0.01 0.01 0.02 0.02 0.03 0.02 0.01 0.01 0.02 0.03 0.02 0.01 0.01 0.01 0.02 0.02 0.02 0.02 0.02 0.03 0.04 0.03 0.03 0.03 0.04 0.05 0.05 0.06 0.07 0.05 0.02 0.01 0.01 0.01 0.01 0.01 0.01 0.02 0.01 0.00 0.00 0.00
0.01 0.01 0.01 0.01 0.01 0.01 0.02 0.01 0.01 0.01 0.02 0.01 0.01 0.01 0.01 0.01 0.01 0.02 0.03 0.03 0.03 0.03 0.03 0.03 0.03 0.03 0.04 0.04 0.04 0.03 0.03 0.02 0.01 0.01 0.01 0.01 0.01 0.01 0.01 0.02 0.01 0.00 0.00 0.00
0.00 0.00 0.01 0.01 0.01 0.01 0.01 0.02 0.01 0.01 0.02 0.01 0.01 0.01 0.01 0.01 0.01 0.01 0.02 0.03 0.02 0.01 0.02 0.02 0.01 0.02 0.02 0.02 0.02 0.01 0.02 0.02 0.02 0.01 0.01 0.01 0.01 0.01 0.01 0.01 0.01 0.00 0.00 0.00
0.00 0.00 0.01 0.01 0.01 0.01 0.01 0.02 0.03 0.02 0.01 0.01 0.01 0.01 0.01 0.01 0.01 0.01 0.01 0.02 0.02 0.02 0.02 0.01 0.01 0.02 0.02 0.02 0.01 0.01 0.01 0.02 0.02 0.02 0.01 0.01 0.01 0.01 0.01 0.01 0.01 0.01 0.01 0.01
0.00 0.01 0.01 0.01 0.01 0.01 0.01 0.02 0.02 0.01 0.01 0.01 0.01 0.01 0.01 0.01 0.01 0.01 0.01 0.01 0.02 0.03 0.01 0.01 0.01 0.01 0.01 0.01 0.01 0.01 0.01 0.01 0.02 0.02 0.01 0.01 0.01 0.01 0.01 0.01 0.01 0.01 0.01 0.01
0.01 0.01 0.01 0.01 0.01 0.01 0.01 0.01 0.01 0.00 0.01 0.01 0.01 0.01 0.01 0.01 0.01 0.01 0.00 0.01 0.01 0.01 0.01 0.00 0.00 0.00 0.01 0.01 0.01 0.01 0.00 0.01 0.01 0.01 0.00 0.00 0.00 0.01 0.01 0.01 0.01 0.01 0.01 0.00
0.01 0.01 0.01 0.01 0.01 0.01 0.01 0.01 0.01 0.00 0.00 0.01 0.01 0.01 0.01 0.01 0.01 0.01 0.00 0.01 0.01 0.01 0.01 0.00 0.00 0.00 0.01 0.01 0.01 0.01 0.00 0.00 0.00 0.00 0.00 0.00 0.00 0.01 0.00 0.00 0.01 0.00 0.00 0.00
0.01 0.01 0.01 0.01 0.01 0.02 0.01 0.01 0.01 0.00 0.00 0.01 0.01 0.01 0.00 0.00 0.00 0.00 0.00 0.01 0.01 0.01 0.01 0.00 0.01 0.01 0.01 0.01 0.01 0.01 0.00 0.00 0.00 0.00 0.00 0.00 0.00 0.00 0.00 0.00 0.00 0.00 0.00 0.00
0.02 0.01 0.01 0.01 0.02 0.01 0.01 0.01 0.01 0.00 0.00 0.00 0.01 0.01 0.00 0.00 0.00 0.00 0.00 0.01 0.01 0.00 0.00 0.00 0.00 0.00 0.00 0.00 0.00 0.00 0.00 0.00 0.00 0.00 0.00 0.00 0.00 0.00 0.00 0.00 0.00 0.00 0.00 0.01
0.01 0.02 0.01 0.01 0.02 0.02 0.01 0.01 0.01 0.00 0.01 0.02 0.02 0.01 0.00 0.00 0.00 0.01 0.01 0.01 0.00 0.00 0.00 0.00 0.00 0.00 0.00 0.00 0.00 0.00 0.00 0.00 0.00 0.00 0.00 0.00 0.00 0.00 0.00 0.00 0.00 0.00 0.00 0.01
0.01 0.01 0.01 0.01 0.01 0.01 0.01 0.00 0.00 0.01 0.01 0.01 0.01 0.01 0.01 0.00 0.00 0.01 0.01 0.00 0.00 0.00 0.00 0.00 0.00 0.00 0.00 0.00 0.00 0.00 0.00 0.00 0.00 0.00 0.00 0.00 0.00 0.00 0.00 0.00 0.00 0.00 0.00 0.01
0.01 0.02 0.02 0.01 0.01 0.02 0.01 0.01 0.03 0.04 0.03 0.01 0.01 0.01 0.01 0.00 0.00 0.00 0.00 0.00 0.01 0.01 0.00 0.00 0.00 0.00 0.00 0.00 0.00 0.00 0.00 0.00 0.00 0.00 0.00 0.00 0.00 0.00 0.01 0.00 0.00 0.00 0.00 0.00
0.01 0.02 0.02 0.02 0.01 0.02 0.02 0.03 0.03 0.02 0.01 0.01 0.01 0.00 0.00 0.00 0.00 0.00 0.00 0.00 0.01 0.00 0.00 0.00 0.00 0.00 0.00 0.00 0.00 0.00 0.00 0.00 0.00 0.00 0.01 0.01 0.01 0.01 0.01 0.00 0.00 0.00 0.00 0.00
0.02 0.02 0.02 0.02 0.02 0.02 0.01 0.01 0.01 0.00 0.00 0.00 0.00 0.00 0.00 0.00 0.00 0.00 0.00 0.00 0.00 0.00 0.00 0.00 0.00 0.00 0.00 0.00 0.00 0.00 0.00 0.00 0.00 0.00 0.00 0.00 0.00 0.00 0.00 0.00 0.00 0.00 0.00 0.00
0.01 0.02 0.02 0.01 0.01 0.01 0.01 0.00 0.00 0.01 0.00 0.00 0.00 0.00 0.00 0.00 0.01 0.01 0.01 0.01 0.01 0.00 0.00 0.00 0.00 0.00 0.00 0.00 0.00 0.00 0.00 0.00 0.00 0.00 0.00 0.00 0.00 0.00 0.00 0.00 0.00 0.00 0.00 0.00
MSLP
1011.79 1010.73 1009.66 1008.63 1007.68 1006.83 1006.09 1005.47 1004.98 1004.63 1004.43 1004.40 1004.56 1004.92 1005.45 1006.15 1006.98 1007.89 1008.82 1009.73 1010.56 1011.28 1011.88 1012.36 1012.73 1013.01 1013.22 1013.40 1013.55 1013.69 1013.80 1013.90 1013.98 1014.05 1014.09 1014.12 1014.15 1014.18 1014.21 1014.25 1014.26 1014.25 1014.19 1014.07
1011.84 1010.80 1009.71 1008.60 1007.51 1006.48 1005.57 1004.79 1004.18 1003.77 1003.58 1003.62 1003.90 1004.40 1005.09 1005.93 1006.86 1007.83 1008.79 1009.67 1010.44 1011.10 1011.62 1012.04 1012.37 1012.63 1012.86 1013.06 1013.24 1013.40 1013.55 1013.66 1013.75 1013.80 1013.83 1013.84 1013.84 1013.85 1013.86 1013.87 1013.87 1013.84 1013.76 1013.61
1011.72 1010.76 1009.69 1008.55 1007.39 1006.26 1005.21 1004.30 1003.59 1003.12 1002.92 1003.00 1003.37 1003.98 1004.80 1005.75 1006.78 1007.81 1008.77 1009.64 1010.36 1010.94 1011.40 1011.75 1012.03 1012.26 1012.48 1012.68 1012.89 1013.09 1013.26 1013.40 1013.50 1013.56 1013.58 1013.57 1013.55 1013.52 1013.50 1013.47 1013.43 1013.37 1013.25 1013.07
1011.53 1010.67 1009.68 1008.58 1007.41 1006.23 1005.10 1004.11 1003.31 1002.78 1002.54 1002.63 1003.04 1003.72 1004.62 1005.65 1006.74 1007.81 1008.79 1009.63 1010.31 1010.83 1011.22 1011.51 1011.74 1011.93 1012.13 1012.34 1012.56 1012.78 1012.99 1013.16 1013.28 1013.35 1013.37 1013.34 1013.29 1013.22 1013.14 1013.06 1012.97 1012.85 1012.68 1012.45
1011.40 1010.65 1009.77 1008.74 1007.62 1006.44 1005.29 1004.24 1003.38 1002.78 1002.50 1002.56 1002.95 1003.64 1004.56 1005.63 1006.74 1007.83 1008.81 1009.63 1010.28 1010.76 1011.10 1011.34 1011.52 1011.68 1011.86 1012.07 1012.30 1012.54 1012.78 1012.97 1013.11 1013.19 1013.20 1013.15 1013.06 1012.95 1012.81 1012.66 1012.49 1012.30 1012.06 1011.78
1011.39 1010.75 1009.98 1009.07 1008.02 1006.89 1005.76 1004.69 1003.79 1003.13 1002.78 1002.76 1003.10 1003.75 1004.64 1005.68 1006.78 1007.85 1008.82 1009.63 1010.26 1010.71 1011.02 1011.23 1011.38 1011.52 1011.69 1011.89 1012.13 1012.38 1012.63 1012.84 1013.00 1013.08 1013.08 1013.00 1012.87 1012.70 1012.49 1012.26 1012.01 1011.74 1011.43 1011.09
1011.53 1010.98 1010.32 1009.52 1008.58 1007.53 1006.44 1005.39 1004.46 1003.75 1003.32 1003.21 1003.46 1004.01 1004.82 1005.79 1006.84 1007.88 1008.83 1009.62 1010.24 1010.68 1010.98 1011.18 1011.32 1011.45 1011.61 1011.80 1012.04 1012.30 1012.55 1012.76 1012.92 1012.99 1012.97 1012.86 1012.68 1012.45 1012.16 1011.85 1011.52 1011.17 1010.81 1010.41
1011.75 1011.26 1010.69 1010.01 1009.18 1008.24 1007.22 1006.21 1005.28 1004.53 1004.02 1003.82 1003.95 1004.38 1005.08 1005.95 1006.93 1007.91 1008.82 1009.59 1010.21 1010.66 1010.97 1011.17 1011.32 1011.46 1011.61 1011.80 1012.02 1012.27 1012.51 1012.71 1012.84 1012.89 1012.85 1012.70 1012.47 1012.17 1011.81 1011.43 1011.02 1010.61 1010.19 1009.76
1011.96 1011.50 1011.00 1010.41 1009.71 1008.88 1007.96 1007.01 1006.11 1005.34 1004.78 1004.49 1004.50 1004.81 1005.38 1006.14 1007.02 1007.94 1008.80 1009.57 1010.19 1010.65 1010.99 1011.21 1011.38 1011.52 1011.67 1011.84 1012.04 1012.26 1012.47 1012.64 1012.74 1012.75 1012.66 1012.47 1012.18 1011.82 1011.41 1010.96 1010.50 1010.03 1009.57 1009.12
1012.05 1011.58 1011.13 1010.62 1010.02 1009.31 1008.50 1007.65 1006.81 1006.06 1005.48 1005.13 1005.05 1005.25 1005.71 1006.36 1007.15 1007.99 1008.82 1009.56 1010.18 1010.67 1011.03 1011.28 1011.47 1011.61 1011.75 1011.90 1012.07 1012.24 1012.39 1012.51 1012.56 1012.52 1012.38 1012.14 1011.80 1011.38 1010.92 1010.42 1009.91 1009.41 1008.93 1008.48
1011.91 1011.42 1010.97 1010.53 1010.02 1009.42 1008.74 1008.00 1007.26 1006.57 1006.02 1005.65 1005.53 1005.66 1006.03 1006.60 1007.31 1008.09 1008.88 1009.60 1010.23 1010.73 1011.10 1011.37 1011.56 1011.70 1011.82 1011.93 1012.04 1012.15 1012.24 1012.29 1012.27 1012.17 1011.98 1011.68 1011.29 1010.83 1010.33 1009.79 1009.26 1008.74 1008.26 1007.81
1011.50 1010.96 1010.51 1010.10 1009.67 1009.19 1008.64 1008.03 1007.41 1006.83 1006.35 1006.03 1005.92 1006.03 1006.36 1006.87 1007.53 1008.26 1009.00 1009.71 1010.32 1010.82 1011.20 1011.47 1011.65 1011.76 1011.84 1011.90 1011.94 1011.98 1011.99 1011.95 1011.86 1011.69 1011.44 1011.09 1010.66 1010.17 1009.63 1009.08 1008.54 1008.01 1007.53 1007.10
1010.85 1010.26 1009.79 1009.40 1009.03 1008.65 1008.22 1007.76 1007.29 1006.85 1006.49 1006.27 1006.22 1006.36 1006.69 1007.18 1007.80 1008.50 1009.21 1009.88 1010.47 1010.95 1011.31 1011.55 1011.70 1011.77 1011.79 1011.78 1011.74 1011.69 1011.62 1011.50 1011.33 1011.10 1010.79 1010.40 1009.94 1009.43 1008.88 1008.32 1007.78 1007.26 1006.79 1006.38
1010.06 1009.41 1008.91 1008.52 1008.20 1007.90 1007.59 1007.28 1006.97 1006.70 1006.49 1006.40 1006.45 1006.66 1007.03 1007.54 1008.14 1008.81 1009.49 1010.11 1010.66 1011.09 1011.41 1011.60 1011.70 1011.71 1011.66 1011.56 1011.45 1011.31 1011.15 1010.96 1010.72 1010.43 1010.08 1009.66 1009.18 1008.67 1008.12 1007.57 1007.04 1006.54 1006.10 1005.71
1009.22 1008.52 1007.99 1007.60 1007.31 1007.07 1006.88 1006.70 1006.56 1006.46 1006.42 1006.48 1006.66 1006.97 1007.40 1007.93 1008.54 1009.17 1009.80 1010.37 1010.85 1011.22 1011.47 1011.60 1011.62 1011.56 1011.43 1011.26 1011.07 1010.86 1010.63 1010.37 1010.08 1009.75 1009.38 1008.95 1008.47 1007.97 1007.44 1006.91 1006.41 1005.94 1005.53 1005.17
1008.45 1007.72 1007.16 1006.76 1006.48 1006.30 1006.20 1006.15 1006.15 1006.22 1006.35 1006.57 1006.88 1007.29 1007.78 1008.35 1008.95 1009.55 1010.12 1010.62 1011.02 1011.31 1011.47 1011.52 1011.47 1011.33 1011.14 1010.90 1010.65 1010.38 1010.10 1009.80 1009.49 1009.14 1008.76 1008.34 1007.89 1007.41 1006.92 1006.43 1005.97 1005.55 1005.17 1004.86
1007.80 1007.06 1006.49 1006.08 1005.82 1005.68 1005.65 1005.71 1005.84 1006.05 1006.34 1006.70 1007.13 1007.63 1008.18 1008.76 1009.35 1009.91 1010.41 1010.82 1011.13 1011.33 1011.40 1011.37 1011.25 1011.05 1010.80 1010.52 1010.23 1009.93 1009.63 1009.32 1009.01 1008.67 1008.31 1007.92 1007.51 1007.07 1006.63 1006.20 1005.79 1005.42 1005.10 1004.84
1007.29 1006.57 1006.01 1005.60 1005.35 1005.25 1005.28 1005.42 1005.66 1005.99 1006.40 1006.88 1007.41 1007.97 1008.56 1009.14 1009.70 1010.20 1010.62 1010.94 1011.16 1011.26 1011.26 1011.16 1010.98 1010.74 1010.47 1010.18 1009.88 1009.58 1009.29 1009.00 1008.70 1008.40 1008.08 1007.73 1007.37 1007.00 1006.62 1006.25 1005.91 1005.60 1005.34 1005.13
1006.91 1006.23 1005.68 1005.29 1005.07 1005.00 1005.07 1005.28 1005.61 1006.03 1006.53 1007.09 1007.68 1008.29 1008.88 1009.45 1009.95 1010.38 1010.72 1010.96 1011.09 1011.12 1011.05 1010.91 1010.71 1010.46 1010.20 1009.92 1009.65 1009.39 1009.13 1008.88 1008.63 1008.37 1008.10 1007.81 1007.51 1007.20 1006.89 1006.59 1006.31 1006.07 1005.87 1005.72
1006.60 1005.96 1005.45 1005.09 1004.89 1004.86 1004.98 1005.24 1005.63 1006.12 1006.68 1007.29 1007.92 1008.54 1009.12 1009.64 1010.09 1010.45 1010.71 1010.87 1010.93 1010.91 1010.81 1010.66 1010.46 1010.25 1010.02 1009.79 1009.58 1009.37 1009.17 1008.97 1008.77 1008.57 1008.35 1008.12 1007.88 1007.63 1007.38 1007.15 1006.93 1006.75 1006.61 1006.51
1006.29 1005.70 1005.24 1004.92 1004.76 1004.76 1004.93 1005.24 1005.68 1006.21 1006.81 1007.45 1008.08 1008.69 1009.24 1009.71 1010.10 1010.39 1010.59 1010.69 1010.71 1010.66 1010.57 1010.43 1010.28 1010.12 1009.96 1009.81 1009.67 1009.53 1009.40 1009.26 1009.12 1008.96 1008.79 1008.61 1008.41 1008.22 1008.02 1007.84 1007.69 1007.56 1007.46 1007.41
1005.94 1005.41 1004.99 1004.72 1004.60 1004.65 1004.86 1005.21 1005.69 1006.25 1006.87 1007.52 1008.14 1008.72 1009.23 1009.66 1009.99 1010.23 1010.37 1010.44 1010.45 1010.41 1010.34 1010.26 1010.18 1010.10 1010.02 1009.96 1009.90 1009.84 1009.78 1009.70 1009.60 1009.49 1009.35 1009.20 1009.05 1008.89 1008.73 1008.60 1008.48 1008.39 1008.33 1008.31
1005.53 1005.05 1004.68 1004.45 1004.38 1004.47 1004.73 1005.12 1005.63 1006.21 1006.85 1007.48 1008.09 1008.64 1009.11 1009.49 1009.78 1009.97 1010.10 1010.16 1010.18 1010.17 1010.16 1010.15 1010.15 1010.17 1010.19 1010.22 1010.25 1010.26 1010.25 1010.22 1010.16 1010.08 1009.97 1009.84 1009.70 1009.57 1009.44 1009.33 1009.25 1009.19 1009.16 1009.15
1005.08 1004.63 1004.30 1004.11 1004.09 1004.23 1004.52 1004.95 1005.49 1006.09 1006.73 1007.35 1007.94 1008.46 1008.89 1009.23 1009.49 1009.67 1009.78 1009.86 1009.91 1009.96 1010.02 1010.10 1010.20 1010.31 1010.43 1010.55 1010.65 1010.73 1010.77 1010.78 1010.74 1010.67 1010.57 1010.46 1010.33 1010.22 1010.11 1010.03 1009.96 1009.93 1009.91 1009.92
1004.60 1004.17 1003.87 1003.72 1003.74 1003.93 1004.26 1004.73 1005.28 1005.90 1006.53 1007.15 1007.71 1008.20 1008.60 1008.92 1009.16 1009.33 1009.46 1009.57 1009.67 1009.78 1009.92 1010.09 1010.29 1010.49 1010.70 1010.90 1011.07 1011.20 1011.28 1011.31 1011.30 1011.24 1011.15 1011.04 1010.93 1010.83 1010.74 1010.68 1010.64 1010.62 1010.63 1010.64
1004.11 1003.70 1003.43 1003.32 1003.38 1003.61 1003.98 1004.47 1005.05 1005.67 1006.30 1006.90 1007.44 1007.91 1008.29 1008.59 1008.82 1009.00 1009.15 1009.29 1009.45 1009.63 1009.85 1010.11 1010.39 1010.68 1010.97 1011.23 1011.46 1011.64 1011.75 1011.81 1011.81 1011.76 1011.69 1011.59 1011.50 1011.42 1011.36 1011.32 1011.31 1011.32 1011.35 1011.39
1003.63 1003.23 1002.99 1002.92 1003.02 1003.29 1003.70 1004.22 1004.81 1005.44 1006.06 1006.65 1007.17 1007.62 1007.98 1008.27 1008.50 1008.69 1008.87 1009.05 1009.26 1009.51 1009.80 1010.13 1010.48 1010.84 1011.20 1011.52 1011.80 1012.01 1012.16 1012.25 1012.27 1012.26 1012.21 1012.14 1012.08 1012.04 1012.01 1012.02 1012.05 1012.09 1012.15 1012.21
Thickness
5684 5690 5691 5690 5691 5694 5692 5691 5685 5689 5691 5693 5694 5691 5689 5686 5683 5681 5678 5674 5671 5668 5665 5662 5659 5656 5652 5650 5648 5646 5644 5642 5640 5638 5636 5634 5633 5631 5628 5626 5623 5620 5617 5614
5675 5686 5688 5686 5689 5690 5690 5690 5689 5689 5689 5695 5694 5691 5687 5683 5680 5676 5673 5670 5667 5663 5659 5656 5653 5651 5648 5646 5644 5642 5639 5638 5636 5634 5633 5631 5630 5628 5625 5623 5620 5617 5614 5611
5667 5680 5680 5675 5683 5684 5685 5688 5686 5682 5685 5689 5686 5683 5681 5679 5678 5674 5671 5667 5663 5659 5654 5651 5649 5647 5644 5643 5641 5638 5636 5634 5633 5631 5629 5628 5628 5626 5623 5620 5617 5614 5611 5608
5662 5665 5654 5674 5688 5685 5681 5683 5686 5684 5684 5684 5682 5682 5680 5678 5675 5672 5669 5665 5660 5656 5652 5650 5647 5644 5642 5640 5638 5635 5633 5632 5630 5628 5626 5625 5623 5622 5619 5617 5614 5612 5609 5606
5654 5657 5663 5675 5680 5679 5675 5674 5680 5678 5678 5679 5681 5680 5678 5675 5672 5669 5666 5661 5657 5654 5651 5648 5645 5642 5639 5637 5635 5633 5631 5629 5628 5625 5623 5621 5619 5617 5616 5614 5611 5609 5607 5604
5647 5645 5648 5663 5674 5680 5675 5666 5673 5673 5672 5673 5673 5671 5672 5670 5667 5665 5662 5658 5654 5652 5649 5645 5642 5640 5636 5634 5632 5630 5629 5628 5625 5622 5619 5617 5616 5614 5614 5612 5609 5608 5606 5603
5643 5643 5654 5663 5670 5673 5657 5654 5665 5668 5668 5667 5666 5665 5664 5665 5662 5660 5657 5654 5652 5649 5645 5642 5640 5637 5634 5632 5630 5629 5628 5626 5623 5620 5617 5616 5614 5613 5611 5610 5608 5606 5604 5602
5641 5640 5644 5658 5662 5654 5652 5659 5662 5664 5665 5663 5662 5662 5661 5660 5658 5655 5653 5651 5649 5646 5643 5641 5639 5635 5632 5630 5630 5628 5626 5624 5621 5619 5617 5617 5613 5611 5610 5608 5607 5606 5604 5601
5638 5642 5649 5654 5652 5654 5656 5656 5659 5661 5662 5661 5659 5659 5658 5656 5654 5653 5651 5649 5647 5644 5641 5639 5637 5634 5630 5629 5629 5627 5624 5622 5619 5617 5616 5614 5612 5611 5610 5608 5607 5606 5604 5601
5636 5645 5650 5653 5654 5655 5655 5656 5658 5660 5660 5659 5657 5656 5655 5653 5651 5650 5649 5648 5646 5643 5640 5637 5635 5633 5630 5629 5628 5625 5623 5620 5618 5616 5615 5613 5611 5612 5610 5608 5605 5603 5601 5598
5633 5640 5645 5649 5650 5651 5653 5655 5656 5658 5658 5656 5655 5653 5652 5650 5648 5648 5647 5645 5644 5641 5639 5636 5635 5633 5631 5630 5627 5624 5622 5620 5618 5618 5616 5613 5612 5609 5607 5603 5600 5595 5596 5594
5631 5637 5636 5641 5647 5649 5650 5652 5653 5654 5654 5654 5653 5651 5649 5648 5647 5646 5645 5643 5641 5640 5638 5637 5635 5633 5631 5629 5627 5624 5622 5620 5620 5619 5617 5615 5613 5610 5604 5600 5596 5591 5586 5583
5632 5637 5639 5642 5645 5648 5649 5652 5653 5653 5653 5651 5651 5650 5648 5646 5645 5645 5643 5642 5640 5638 5637 5636 5635 5632 5631 5629 5627 5624 5621 5620 5619 5619 5617 5616 5614 5610 5607 5602 5595 5591 5586 5581
5633 5634 5635 5639 5642 5646 5648 5651 5652 5652 5652 5650 5650 5649 5647 5646 5645 5644 5642 5641 5640 5639 5637 5636 5634 5631 5630 5628 5626 5624 5622 5620 5618 5617 5616 5615 5614 5612 5609 5605 5601 5597 5589 5581
5632 5634 5635 5639 5642 5645 5647 5649 5649 5649 5649 5648 5648 5647 5646 5645 5643 5643 5642 5641 5639 5638 5637 5636 5634 5631 5630 5628 5625 5623 5622 5621 5618 5617 5616 5615 5614 5612 5609 5605 5601 5597 5593 5586
5631 5634 5636 5637 5640 5643 5646 5647 5648 5648 5648 5647 5647 5646 5646 5645 5644 5643 5642 5641 5638 5637 5636 5634 5632 5631 5630 5628 5625 5624 5621 5615 5614 5617 5617 5615 5613 5610 5607 5603 5599 5595 5590 5585
5629 5630 5632 5635 5639 5642 5645 5647 5648 5649 5649 5647 5646 5646 5646 5645 5643 5642 5641 5641 5640 5638 5636 5634 5633 5632 5631 5628 5626 5627 5625 5620 5613 5616 5616 5614 5611 5608 5604 5600 5597 5593 5588 5581
5632 5633 5635 5637 5639 5641 5644 5648 5650 5650 5650 5649 5648 5646 5645 5643 5642 5642 5642 5641 5640 5638 5636 5635 5633 5632 5631 5629 5627 5627 5626 5624 5621 5618 5615 5611 5608 5605 5601 5598 5595 5591 5587 5581
5633 5635 5637 5639 5641 5643 5646 5648 5651 5652 5651 5650 5648 5646 5645 5644 5644 5643 5642 5641 5639 5636 5635 5635 5630 5631 5630 5628 5625 5625 5625 5623 5621 5617 5614 5608 5606 5603 5600 5596 5592 5587 5582 5577
5633 5635 5637 5639 5642 5644 5647 5649 5650 5651 5651 5650 5648 5646 5645 5645 5645 5644 5642 5641 5640 5639 5636 5634 5632 5632 5631 5628 5624 5627 5626 5623 5620 5617 5613 5609 5604 5600 5597 5593 5589 5583 5577 5572
5631 5634 5636 5639 5642 5645 5648 5650 5650 5650 5650 5650 5648 5647 5646 5646 5646 5645 5642 5641 5639 5638 5635 5631 5633 5633 5631 5628 5623 5628 5626 5623 5620 5616 5611 5607 5602 5598 5594 5590 5584 5578 5572 5566
5628 5632 5635 5638 5641 5644 5648 5650 5651 5651 5651 5650 5650 5649 5648 5646 5646 5645 5644 5643 5640 5634 5636 5636 5635 5630 5629 5625 5629 5628 5626 5622 5618 5614 5609 5604 5600 5595 5590 5585 5580 5573 5567 5561
5626 5629 5633 5637 5640 5644 5647 5650 5651 5652 5651 5651 5651 5650 5650 5649 5649 5647 5644 5642 5641 5634 5636 5636 5629 5625 5623 5626 5628 5626 5623 5619 5615 5611 5607 5601 5597 5592 5587 5581 5575 5569 5562 5555
5624 5628 5632 5637 5641 5644 5646 5649 5651 5652 5652 5653 5653 5652 5651 5649 5648 5649 5647 5639 5636 5634 5636 5630 5625 5623 5620 5627 5627 5625 5621 5617 5612 5608 5604 5600 5595 5589 5583 5577 5571 5564 5557 5549
5623 5627 5633 5636 5640 5644 5645 5648 5649 5650 5653 5654 5654 5652 5653 5653 5650 5649 5646 5642 5635 5634 5635 5630 5624 5622 5625 5628 5626 5623 5618 5614 5610 5606 5601 5596 5592 5586 5579 5573 5566 5559 5552 5545
5622 5627 5633 5636 5641 5645 5648 5649 5651 5653 5654 5654 5654 5654 5653 5652 5650 5648 5644 5642 5639 5635 5637 5635 5631 5625 5628 5627 5624 5620 5616 5611 5607 5603 5598 5593 5588 5582 5575 5568 5561 5555 5547 5539
5624 5628 5633 5639 5643 5647 5650 5652 5653 5654 5656 5656 5655 5654 5654 5652 5650 5648 5646 5644 5642 5640 5639 5638 5635 5632 5630 5627 5622 5618 5614 5610 5605 5600 5595 5590 5584 5577 5570 5563 5556 5549 5542 5535